Terminal Aerodrome Forecast
Issued by NWS Bismarck, ND

Home | Current Version | Previous Version | Graphics & Text | Print | Product List | Glossary On
Versions: 1 2 3 4 5 6 7 8 9 10 11 12 13 14 15 16 17 18 19 20 21
000
FTUS43 KBIS 202000 AAA
TAFBIS
TAF AMD
KBIS 202042Z 2021/2118 21007KT P6SM VCTS SCT080CB OVC120
      TEMPO 2021/2024 3SM TSRA BKN040CB
     FM210200 33006KT P6SM SCT060
     FM210800 31006KT P6SM FEW120=

USA.gov is the U.S. government's official web portal to all federal, state and local government web resources and services.